Printer-friendly version
Follow the MPC on Twitter Follow the MPC on Facebook The MPC blog
Minor Planet Center

MPEC 2010-K55 : 2010 KV39

The following Minor Planet Electronic Circular may be linked-to from your own Web pages, but must not otherwise be redistributed electronically.

A form allowing access to any MPEC is at the bottom of this page.


Read MPEC 2010-K54 Read MPEC 2010-K56


M.P.E.C. 2010-K55                                Issued 2010 May 24, 23:19 UT

     The Minor Planet Electronic Circulars contain information on unusual
         minor planets and routine data on comets.  They are published
   on behalf of Commission 20 of the International Astronomical Union by the
          Minor Planet Center, Smithsonian Astrophysical Observatory,
                          Cambridge, MA 02138, U.S.A.

             Prepared using the Tamkin Foundation Computer Network

                              MPC@CFA.HARVARD.EDU
       URL http://www.minorplanetcenter.org/iau/mpc.html  ISSN 1523-6714

                                   2010 KV39

Observations:
     K10K39V* C2010 05 24.37134 17 23 12.48 +20 35 20.0          19.1 V EK055703
     K10K39V  C2010 05 24.37590 17 23 09.34 +20 35 47.7          19.3 V EK055703
     K10K39V  C2010 05 24.38052 17 23 06.14 +20 36 16.5          19.7 V EK055703
     K10K39V  C2010 05 24.38517 17 23 02.94 +20 36 45.9          19.7 V EK055703
     K10K39V  C2010 05 24.41357 17 22 43.10 +20 39 38.6          19.3 V EK055703
     K10K39V  C2010 05 24.41413 17 22 42.81 +20 39 42.0          19.6 V EK055703
     K10K39V  C2010 05 24.41471 17 22 42.42 +20 39 46.0          19.0 V EK055703
     K10K39V  C2010 05 24.41529 17 22 41.84 +20 39 48.5          19.2 V EK055703
     K10K39V  C2010 05 24.45088 17 22 17.03 +20 43 24.9          19.1 V EK055703
     K10K39V  C2010 05 24.45144 17 22 16.58 +20 43 27.7                 EK055703
     K10K39V KC2010 05 24.87255 17 18 52.00 +21 35 51.2                 EK055204
     K10K39V KC2010 05 24.88344 17 18 42.63 +21 37 44.5          18.6 C EK055204
     K10K39V KC2010 05 24.89753 17 18 31.10 +21 38 50.8                 EK055J95
     K10K39V KC2010 05 24.91043 17 18 20.05 +21 41 06.6          18.9 R EK055J95
     K10K39V KC2010 05 24.91236 17 18 15.51 +21 42 18.3          18.8 V EK055198
     K10K39V KC2010 05 24.91864 17 18 12.76 +21 42 34.1                 EK055J95
     K10K39V KC2010 05 24.92319 17 18 05.45 +21 44 13.7          19.2 V EK055198
     K10K39V KC2010 05 24.92573 17 18 06.36 +21 43 49.3          18.7 R EK055J95
     K10K39V KC2010 05 24.93402 17 17 55.13 +21 46 07.5          19.1 V EK055198
     K10K39V KC2010 05 24.94280 17 17 46.66 +21 47 40.9          18.4 V EK055198

Observer details:
198 Wildberg.  Observer R. Apitzsch.  0.35-m f/4.2 reflector + CCD.
204 Schiaparelli Observatory.  Observer L. Buzzi.  0.38-m f/6.8 reflector
    + CCD.
703 Catalina Sky Survey.  Observer R. E. Hill.  Measurers J. D. Ahern,
    E. C. Beshore, A. Boattini, G. J. Garradd, A. R. Gibbs, A. D. Grauer,
    R. E. Hill, R. A. Kowalski, S. M. Larson, R. H. McNaught.  0.68-m Schmidt
    + CCD.
J95 Great Shefford.  Observer P. Birtwhistle.  0.40-m f/6.0 Schmidt-Cassegrain
    + CCD.

Orbital elements:
2010 KV39                                                Earth MOID = 0.0008 AU
Epoch 2010 July 23.0 TT = JDT 2455400.5                 MPC
M 331.44396              (2000.0)            P               Q
n   1.05042111     Peri.  296.64916     +0.97548146     -0.02541602
a   0.9584300      Node    65.49247     +0.12966476     +0.86897673
e   0.2554899      Incl.   13.90156     -0.17782848     +0.49419982
P   0.94           H   26.7           G   0.15           U   7
Residuals in seconds of arc
100524 703  0.0   0.1-    100524 703  1.2-  1.1-    100524 198  0.5+  0.5-
100524 703  0.0   0.6-    100524 703  0.0   0.1-    100524 J95  0.3+  0.2-
100524 703  0.1-  0.3-    100524 703  0.8-  0.7-    100524 198  0.4+  0.7+
100524 703  0.2+  0.5+    100524 204  0.2-  0.2-    100524 J95  0.1-  0.4-
100524 703  0.4-  0.6-    100524 204  0.4-  0.2-    100524 198  0.4-  0.2-
100524 703  1.0+  0.6-    100524 J95  0.7-  0.6-    100524 198  0.4-  0.2-
100524 703  1.2+  0.1-    100524 J95  0.6+  0.7-

Ephemeris:
2010 KV39                a,e,i = 0.96, 0.26, 14                  q = 0.7136
Date    TT    R. A. (2000) Decl.     Delta      r     Elong.  Phase     V
2010 05 24.0  17 25.76   +20 03.1    0.0174   1.025   134.4    44.9    19.7
2010 05 24.5  17 22.20   +20 51.4    0.0144   1.023   134.2    45.2    19.3
2010 05 25.0  17 16.73   +22 03.5    0.0115   1.021   133.8    45.8    18.8
2010 05 25.5  17 07.28   +24 03.4    0.00854  1.019   132.7    46.9    18.2

2010 05 26.0  16 47.13   +27 59.4    0.00565  1.017   130.2    49.6    17.3
2010 05 26.1  16 40.05   +29 16.0    0.00508  1.016   129.2    50.6    17.1
2010 05 26.2  16 30.97   +30 49.6    0.00453  1.016   127.9    51.9    16.9
2010 05 26.3  16 18.93   +32 45.6    0.00398  1.015   126.1    53.7    16.7
2010 05 26.4  16 02.31   +35 11.0    0.00345  1.015   123.7    56.2    16.5
2010 05 26.5  15 38.21   +38 13.2    0.00294  1.014   120.1    59.7    16.2
2010 05 26.6  15 01.25   +41 53.3    0.00247  1.014   114.8    65.0    16.0
2010 05 26.7  14 01.93   +45 38.8    0.00207  1.014   106.9    73.0    15.9
2010 05 26.8  12 30.48   +47 15.2    0.00179  1.013    95.2    84.7    16.0
2010 05 26.9  10 41.04   +42 55.8    0.00167  1.013    80.5    99.4    16.4

2010 05 27.0  09 12.55   +33 06.8    0.00177  1.012    66.1   113.8    17.4
2010 05 27.5  06 48.91   +01 10.4    0.00393  1.010    42.3   137.6    21.2
2010 05 28.0  06 19.01   -06 52.3    0.00674  1.008    40.9   138.8    22.6

Carl W. Hergenrother         (C) Copyright 2010 MPC           M.P.E.C. 2010-K55

Read MPEC 2010-K54 Read MPEC 2010-K56


MPEC number:

Enter an MPEC number in one of the following forms:

  • 1997-B01 (the full form)
  • J97B01 (the packed version of the full form)
  • B01 (the abbreviated form)

Valid HTML 4.01!